sat.trackr.live / text

‹ back to catalog

FIRESAT 0 (MUSAT-4)

NORAD 63256 · 2025-052AY

PAYLOAD ACTIVE UNKNOWN

§ Identity

Operator
Country
US
Launch date
2025-03-15
Launch site
AFWTR
Launch vehicle
Mass (kg)
RCS (m²)

External: N2YO · Heavens-Above · Gunter

§ Orbital elements

Epoch: 2026-09-22T15:36:31.935168Z

Period
96.44 min
Inclination
97.6815°
Eccentricity
0.0001099
Mean motion
14.93095461 rev/d
Perigee alt
587.5 km
Apogee alt
589.1 km
Semi-major
6,966.4 km
B*
8.5773e-5
RAAN
154.6245°
Arg perigee
58.2340°
Mean anomaly
301.8986°
Rev number
8,313

§ Raw data

FIRESAT 0 (MUSAT-4)1 63256U 25052AY  26265.65036962  .00000838  00000+0  85773-4 0  99962 63256  97.6815 154.6245 0001099  58.2340 301.8986 14.93095461 83130

JSON: /api/v1/satellites/63256 · /tle

For live sub-satellite position, see the globe view (requires WebGL).

§ Visibility from observer

Set your observer location to see the next 7 days of passes ≥ 10°. The values pass through the URL so the page stays shareable.

No JS? Fill the form by hand. The geolocation button needs JavaScript.